Regional Weather Roundup
Issued by NWS Newport/Morehead, NC

Current Version | Previous Version | Graphics & Text | Print | Product List | Glossary On
Versions: 1 2 3 4 5 6 7 8 9 10 11 12 13 14 15 16 17 18 19 20 21 22 23 24 25 26 27 28 29 30 31 32 33 34 35 36 37 38 39 40 41 42 43 44 45 46 47 48 49 50
000 ASUS42 KMHX 282327 RWRMHX WEATHER ROUNDUP FOR EASTERN NORTH CAROLINA NATIONAL WEATHER SERVICE NEWPORT/MOREHEAD CITY NC 700 PM EDT SAT MAR 28 2015 NOTE: "FAIR" INDICATES FEW OR NO CLOUDS BELOW 12,000 FEET WITH NO SIGNIFICANT WEATHER AND/OR OBSTRUCTIONS TO VISIBILITY NCZ015>017-031-032-045>047-102-103-290000- NORTH COAST CITY SKY/WX TMP DP RH WIND PRES REMARKS EDENTON MOCLDY 40 24 52 NW7 30.11R ELIZABETH CITY PTCLDY 39 21 48 NW13 30.10R KITTY HAWK PTCLDY 39 23 52 NW8G16 30.08R MANTEO PTCLDY 39 22 50 NW9G17 30.11R $$ NCZ045>047-081-094-103-104-290000- CENTRAL COAST CITY SKY/WX TMP DP RH WIND PRES REMARKS FRISCO PTCLDY 41 27 57 NW9G17 30.07R SWANQUARTER N/A 41 N/A N/A NW1G8 30.06R $$ NCZ095-097-098-100-101-290000- SOUTHERN COAST CITY SKY/WX TMP DP RH WIND PRES REMARKS BEAUFORT CLEAR 47 29 49 NW15 30.07R CEDAR ISLAND N/A 45 N/A N/A NW15G21 30.12R JACKSONVILLE CLEAR 47 23 38 NW14 30.08R PINEY ISLAND PTCLDY N/A N/A N/A NW13 30.07R WILMINGTON PTCLDY 50 25 37 NW10 30.07R $$ NCZ011>013-027>030-043-044-078>080-089-090>093-098-290000- COASTAL PLAIN CITY SKY/WX TMP DP RH WIND PRES REMARKS AHOSKIE PTCLDY 39 19 46 CALM 30.11R CLINTON CLEAR 46 21 37 NW8 30.12R ELIZABETHTOWN CLEAR 49 21 34 NW7 30.11R GOLDSBORO CLEAR 45 18 33 NW9 30.08R GREENVILLE CLEAR 43 16 33 NW3 30.13R HAVELOCK PTCLDY 47 21 35 NW14 30.08R KENANSVILLE CLEAR 45 19 35 NW7 30.12R KINSTON CLEAR 45 14 29 NW7 30.11R NEW BERN CLEAR 45 21 38 NW14 30.10R RICHLANDS CLEAR 45 21 39 NW5 30.11R ROCKY MOUNT CLEAR 44 13 28 NW6 30.10R WASHINGTON PTCLDY 42 18 38 NW5 30.12R WHITEVILLE CLEAR 49 24 36 CALM 30.09R $$ AMZ130-135-150-152-154-156-158-170-250-252-270-ANZ085-086-088-633-658-670-290000- MARINE OBSERVATIONS STATION/POSITION TIME TEMP WIND PRES WAVE SWELL AIR SEA DIR/SP/G HT/PER HT/PER (UTC) (F) (DEG/KT/KT) (MB) (FT/S) (FT/S) CHESAPEAKE LIGHT 2300 38 360/ 16/ 17 1019.1 64 E VA BEACH 2250 39 57 330/ 14/ 19 1017.9 6/ 7 5/ 7 DUCK 2300 40 42 310/ 15/ 20 1018.1 2 E DUCK 2311 42 N/A 4/ 8 2/11 10 NE DUCK NOT AVBL OREGON INLET 2300 40 46 310/ 12/ 17 1019.0 HATTERAS CG 2300 43 54 340/ 15/ 19 1018.7 CAPE LOOKOUT 2300 48 330/ 14/ 17 1017.6 BEAUFORT LAB 2300 48 56 320/ 9/ 12 1017.3 27 SE WRIGHTSVLE 2300 50 65 330/ 14/ 17 1019.1 5 SE WRIGHTSVLE 2300 52 56 320/ 17/ 21 1017.9 225 S CAPE HAT 2250 62 69 280/ 16/ 19 1016.6 12/ 9 10/ 9 41 SE CHARLESTON 2250 56 68 290/ 16/ 23 1018.0 4/ 5 2/ 8 $$

USA.gov is the U.S. government's official web portal to all federal, state and local government web resources and services.